Regional Weather Roundup
Issued by NWS Sioux Falls, SD

Home | Current Version | Previous Version | Graphics & Text | Print | Product List | Glossary Off
Versions: 1 2 3 4 5 6 7 8 9 10 11 12 13 14 15 16 17 18 19 20 21 22 23 24 25 26 27 28 29 30 31 32 33 34 35 36 37 38 39 40 41 42 43 44 45 46 47 48 49 50

000
ASUS43 KFSD 231302
RWRFSD

WEATHER ROUNDUP FOR SE SOUTH DAKOTA/SW MINNESOTA/NW IOWA
NATIONAL WEATHER SERVICE SIOUX FALLS SD
800 AM CDT WED MAY 23 2018

NOTE: "FAIR" INDICATES FEW OR NO CLOUDS BELOW 12,000 FEET WITH NO
SIGNIFICANT WEATHER AND OR OBSTRUCTIONS TO VISIBILITY.


SDZ038>040-050-052>070-231400-
SOUTHEAST SOUTH DAKOTA

CITY           SKY/WX    TMP DP  RH WIND       PRES   REMARKS
BROOKINGS      CLOUDY    65  61  87 SE12      30.03R
CHAMBERLAIN    CLOUDY    67  67 100 E8        29.94R FOG
HURON          CLOUDY    66  63  90 SE10      29.95R THUNDER
MADISON        FAIR      64  64 100 SE14G23   30.02R
MITCHELL       PTSUNNY   68  64  87 SE8       29.96R
SIOUX FALLS    CLOUDY    68  64  87 SE14      30.01S
WINNER         FAIR      69  63  81 E9        29.91R
YANKTON        MOSUNNY   69  64  84 SE8       29.98R
$$

MNZ071-072-080-081-089-090-097-098-231400-
SOUTHWEST MINNESOTA

CITY           SKY/WX    TMP DP  RH WIND       PRES   REMARKS
FAIRMONT       CLOUDY    64  60  87 S15       30.11F
JACKSON        CLOUDY    64  55  72 SE13      30.11S
LUVERNE        CLOUDY    68  55  64 SE18G26   30.04S
MARSHALL       CLOUDY    65  61  87 NW18      30.04R THUNDER
MONTEVIDEO     CLOUDY    66  61  82 N6        30.05R THUNDER
PIPESTONE      CLOUDY    68  61  77 S10G22    30.04R THUNDER
REDWOOD FALLS  CLOUDY    64  62  93 S8        30.04S THUNDER
TRACY          CLOUDY    66  61  84 S15G24    30.01F
WINDOM         PTSUNNY   66  48  52 SE13      30.08S
WORTHINGTON      N/A     67  58  72 SE17      30.08S
$$

IAZ001>003-012>014-020>022-031-032-NEZ013-014-SDZ071-231400-
NORTHWEST IOWA

CITY           SKY/WX    TMP DP  RH WIND       PRES   REMARKS
CHEROKEE       CLOUDY    67  64  91 E15G22    30.10R
DENISON        SUNNY     72  64  78 S9        30.08S
ESTHERVILLE    CLOUDY    63  59  87 SE18      30.12R
ORANGE CITY    CLOUDY    68  64  88 E12G18    30.06S
SHELDON        CLOUDY    68  63  83 SE22G30   30.05F
SIOUX CITY     MOSUNNY   68  64  87 SE12      30.02S
SPENCER        CLOUDY    67  59  75 E20       30.11R
STORM LAKE     PTSUNNY   66  63  88 E18G26    30.12R
$$

ABBREVIATIONS USED IN REMARKS
   TC - TEMPERATURE IN CELSIUS
  WCI - WIND CHILL INDEX
   HX - HEAT INDEX
  VSB - VISIBILITY




USA.gov is the U.S. government's official web portal to all federal, state and local government web resources and services.